| time (UTC) | temp C | wind direction | speed KPH | gust KPH | rain 1hr cm | rain 24hr cm | rain mn cm | humidity % | barometer mb |
| 20260904045528 | 26 | 155 | 8.0 | 17.7 | 0.00 | 0.00 | 0.00 | 81 | 1012.4 |
| 20260904045005 | 26 | 141 | 4.8 | 16.1 | 0.00 | 0.00 | 0.00 | 81 | 1012.4 |
| 20260904044557 | 26 | 134 | 6.4 | 16.1 | 0.00 | 0.00 | 0.00 | 81 | 1012.4 |
| 20260904044033 | 26 | 169 | 6.4 | 14.5 | 0.00 | 0.00 | 0.00 | 81 | 1012.4 |
| 20260904043511 | 26 | 140 | 6.4 | 17.7 | 0.00 | 0.00 | 0.00 | 80 | 1012.4 |
| 20260904043103 | 26 | 139 | 9.7 | 17.7 | 0.00 | 0.00 | 0.00 | 80 | 1012.3 |
| 20260904042540 | 27 | 142 | 6.4 | 14.5 | 0.00 | 0.00 | 0.00 | 79 | 1012.4 |
| 20260904042017 | 27 | 153 | 6.4 | 20.9 | 0.00 | 0.00 | 0.00 | 79 | 1012.5 |
| 20260904041505 | 27 | 126 | 8.0 | 20.9 | 0.00 | 0.00 | 0.00 | 78 | 1012.5 |
| 20260904041046 | 27 | 153 | 8.0 | 14.5 | 0.00 | 0.00 | 0.00 | 78 | 1012.5 |
| 20260904040522 | 27 | 140 | 6.4 | 16.1 | 0.00 | 0.00 | 0.00 | 78 | 1012.6 |
| 20260904040011 | 27 | 125 | 6.4 | 12.9 | 0.00 | 0.00 | 0.00 | 78 | 1012.4 |
| 20260904035552 | 27 | 152 | 6.4 | 16.1 | 0.00 | 0.00 | 0.00 | 78 | 1012.4 |
| 20260904035029 | 27 | 146 | 9.7 | 16.1 | 0.00 | 0.00 | 0.00 | 77 | 1012.3 |
| 20260904034519 | 27 | 142 | 6.4 | 16.1 | 0.00 | 0.00 | 0.00 | 77 | 1012.4 |
| 20260904034058 | 27 | 144 | 6.4 | 22.5 | 0.00 | 0.00 | 0.00 | 76 | 1012.3 |
| 20260904033534 | 27 | 142 | 11.3 | 22.5 | 0.00 | 0.00 | 0.00 | 76 | 1012.3 |
| 20260904033033 | 27 | 141 | 4.8 | 17.7 | 0.00 | 0.00 | 0.00 | 75 | 1012.3 |
| 20260904032604 | 27 | 130 | 6.4 | 22.5 | 0.00 | 0.00 | 0.00 | 75 | 1012.2 |
| 20260904032041 | 27 | 134 | 6.4 | 22.5 | 0.00 | 0.00 | 0.00 | 75 | 1012.2 |
| 20260904031533 | 27 | 146 | 8.0 | 17.7 | 0.00 | 0.00 | 0.00 | 75 | 1012.2 |
| 20260904031009 | 27 | 169 | 6.4 | 12.9 | 0.00 | 0.00 | 0.00 | 74 | 1012.1 |
| 20260904030551 | 27 | 146 | 6.4 | 17.7 | 0.00 | 0.00 | 0.00 | 74 | 1012.1 |
| 20260904030038 | 27 | 136 | 8.0 | 17.7 | 0.00 | 0.00 | 0.00 | 73 | 1012.0 |
| 20260904025515 | 27 | 169 | 6.4 | 19.3 | 0.00 | 0.00 | 0.00 | 73 | 1011.9 |
| 20260904025056 | 27 | 150 | 6.4 | 22.5 | 0.00 | 0.00 | 0.00 | 73 | 1012.0 |
| 20260904024545 | 27 | 153 | 9.7 | 22.5 | 0.00 | 0.00 | 0.00 | 72 | 1012.0 |
| 20260904024020 | 27 | 125 | 6.4 | 19.3 | 0.00 | 0.00 | 0.00 | 72 | 1011.9 |
| 20260904023602 | 27 | 136 | 8.0 | 17.7 | 0.00 | 0.00 | 0.00 | 71 | 1011.8 |
| 20260904023050 | 28 | 145 | 8.0 | 19.3 | 0.00 | 0.00 | 0.00 | 70 | 1011.8 |
| 20260904022526 | 28 | 130 | 6.4 | 16.1 | 0.00 | 0.00 | 0.00 | 70 | 1011.7 |
| 20260904022002 | 28 | 149 | 4.8 | 16.1 | 0.00 | 0.00 | 0.00 | 69 | 1011.7 |
| 20260904021557 | 28 | 156 | 4.8 | 17.7 | 0.00 | 0.00 | 0.00 | 69 | 1011.7 |
| 20260904021033 | 28 | 153 | 6.4 | 17.7 | 0.00 | 0.00 | 0.00 | 69 | 1011.7 |
| 20260904020509 | 28 | 93 | 6.4 | 14.5 | 0.00 | 0.00 | 0.00 | 69 | 1011.6 |
| 20260904020126 | 28 | 151 | 8.0 | 17.7 | 0.00 | 0.00 | 0.00 | 69 | 1011.5 |
| 20260904015540 | 28 | 141 | 4.8 | 17.7 | 0.00 | 0.00 | 0.00 | 68 | 1011.3 |
| 20260904015016 | 28 | 142 | 8.0 | 17.7 | 0.00 | 0.00 | 0.00 | 68 | 1011.2 |
| 20260904014503 | 28 | 159 | 6.4 | 17.7 | 0.00 | 0.00 | 0.00 | 68 | 1011.2 |
| 20260904014044 | 28 | 134 | 11.3 | 17.7 | 0.00 | 0.00 | 0.00 | 68 | 1011.2 |
| 20260904013524 | 28 | 147 | 4.8 | 17.7 | 0.00 | 0.00 | 0.00 | 68 | 1011.1 |
| 20260904013016 | 28 | 135 | 8.0 | 20.9 | 0.00 | 0.00 | 0.00 | 68 | 1011.1 |
| 20260904012550 | 28 | 120 | 8.0 | 22.5 | 0.00 | 0.00 | 0.00 | 68 | 1011.2 |
| 20260904012027 | 28 | 88 | 9.7 | 19.3 | 0.00 | 0.00 | 0.00 | 68 | 1011.2 |
| 20260904011516 | 28 | 135 | 8.0 | 19.3 | 0.00 | 0.00 | 0.00 | 68 | 1011.1 |
| 20260904011059 | 28 | 129 | 8.0 | 22.5 | 0.00 | 0.00 | 0.00 | 68 | 1011.1 |
| 20260904010533 | 29 | 159 | 4.8 | 16.1 | 0.00 | 0.00 | 0.00 | 68 | 1011.0 |
| 20260904010022 | 29 | 110 | 6.4 | 14.5 | 0.00 | 0.00 | 0.00 | 68 | 1010.9 |
| 20260904005605 | 29 | 130 | 3.2 | 14.5 | 0.00 | 0.00 | 0.00 | 68 | 1010.8 |
| 20260904005040 | 29 | 94 | 4.8 | 16.1 | 0.00 | 0.00 | 0.00 | 67 | 1010.8 |
| 20260904004530 | 29 | 132 | 6.4 | 17.7 | 0.00 | 0.00 | 0.00 | 67 | 1010.8 |
| 20260904004005 | 29 | 111 | 8.0 | 20.9 | 0.00 | 0.00 | 0.00 | 67 | 1010.7 |
| 20260904003546 | 30 | 159 | 12.9 | 24.1 | 0.00 | 0.00 | 0.00 | 66 | 1010.8 |
| 20260904003039 | 30 | 140 | 11.3 | 24.1 | 0.00 | 0.00 | 0.00 | 66 | 1010.8 |
| 20260904002513 | 30 | 111 | 11.3 | 20.9 | 0.00 | 0.00 | 0.00 | 65 | 1010.8 |
| 20260904002055 | 30 | 134 | 6.4 | 17.7 | 0.00 | 0.00 | 0.00 | 65 | 1010.8 |
| 20260904001544 | 30 | 130 | 4.8 | 19.3 | 0.00 | 0.00 | 0.00 | 65 | 1010.7 |
| 20260904001020 | 31 | 135 | 6.4 | 24.1 | 0.00 | 0.00 | 0.00 | 65 | 1010.7 |
| 20260904000601 | 31 | 117 | 11.3 | 24.1 | 0.00 | 0.00 | 0.00 | 64 | 1010.7 |
| 20260904000050 | 31 | 132 | 8.0 | 25.7 | 0.00 | 0.00 | 0.00 | 64 | 1010.6 |
| 20260903235526 | 31 | 130 | 11.3 | 25.7 | 0.00 | 0.00 | 0.00 | 65 | 1010.6 |
| 20260903235003 | 31 | 104 | 12.9 | 24.1 | 0.00 | 0.00 | 0.00 | 65 | 1010.5 |
| 20260903234605 | 31 | 77 | 9.7 | 24.1 | 0.00 | 0.00 | 0.00 | 64 | 1010.5 |
| 20260903234034 | 31 | 126 | 11.3 | 24.1 | 0.00 | 0.00 | 0.00 | 64 | 1010.4 |
| 20260903233511 | 32 | 148 | 16.1 | 24.1 | 0.00 | 0.00 | 0.00 | 63 | 1010.4 |
| 20260903233105 | 32 | 136 | 6.4 | 24.1 | 0.00 | 0.00 | 0.00 | 63 | 1010.3 |
| 20260903232543 | 32 | 111 | 12.9 | 24.1 | 0.00 | 0.00 | 0.00 | 63 | 1010.3 |
| 20260903232021 | 32 | 128 | 11.3 | 24.1 | 0.00 | 0.00 | 0.00 | 63 | 1010.2 |
| 20260903231513 | 32 | 146 | 9.7 | 27.4 | 0.00 | 0.00 | 0.00 | 64 | 1010.3 |
| 20260903231056 | 32 | 132 | 9.7 | 27.4 | 0.00 | 0.00 | 0.00 | 64 | 1010.2 |
| 20260903230534 | 33 | 121 | 8.0 | 22.5 | 0.00 | 0.00 | 0.00 | 65 | 1010.2 |
| 20260903230043 | 33 | 119 | 9.7 | 25.7 | 0.00 | 0.00 | 0.00 | 64 | 1010.1 |
| 20260903225502 | 33 | 124 | 12.9 | 25.7 | 0.00 | 0.00 | 0.00 | 63 | 1010.0 |
| 20260903225043 | 33 | 113 | 4.8 | 20.9 | 0.00 | 0.00 | 0.00 | 62 | 1009.8 |
| 20260903224532 | 33 | 58 | 6.4 | 20.9 | 0.00 | 0.00 | 0.00 | 61 | 1009.9 |
| 20260903224008 | 33 | 128 | 6.4 | 27.4 | 0.00 | 0.00 | 0.00 | 61 | 1009.8 |
| 20260903223550 | 33 | 129 | 11.3 | 27.4 | 0.00 | 0.00 | 0.00 | 60 | 1009.8 |
| 20260903223040 | 34 | 103 | 8.0 | 22.5 | 0.00 | 0.00 | 0.00 | 59 | 1009.8 |
| 20260903222516 | 34 | 137 | 9.7 | 29.0 | 0.00 | 0.00 | 0.00 | 58 | 1009.9 |
| 20260903222057 | 34 | 140 | 8.0 | 24.1 | 0.00 | 0.00 | 0.00 | 59 | 1009.8 |
| 20260903221547 | 35 | 101 | 8.0 | 19.3 | 0.00 | 0.00 | 0.00 | 57 | 1009.8 |
| 20260903221026 | 35 | 145 | 8.0 | 20.9 | 0.00 | 0.00 | 0.00 | 57 | 1009.8 |
| 20260903220604 | 35 | 136 | 8.0 | 20.9 | 0.00 | 0.00 | 0.00 | 57 | 1009.8 |
| 20260903220105 | 35 | 119 | 8.0 | 17.7 | 0.00 | 0.00 | 0.00 | 56 | 1009.8 |
| 20260903215531 | 34 | 120 | 6.4 | 22.5 | 0.00 | 0.00 | 0.00 | 57 | 1009.8 |
| 20260903215006 | 34 | 117 | 9.7 | 24.1 | 0.00 | 0.00 | 0.00 | 56 | 1009.8 |
| 20260903214602 | 33 | 59 | 6.4 | 24.1 | 0.00 | 0.00 | 0.00 | 56 | 1009.7 |
| 20260903214038 | 33 | 155 | 6.4 | 16.1 | 0.00 | 0.00 | 0.00 | 56 | 1009.8 |
| 20260903213517 | 33 | 80 | 6.4 | 19.3 | 0.00 | 0.00 | 0.00 | 56 | 1009.9 |
| 20260903213001 | 33 | 130 | 6.4 | 20.9 | 0.00 | 0.00 | 0.00 | 56 | 1010.0 |
| 20260903212542 | 34 | 134 | 8.0 | 20.9 | 0.00 | 0.00 | 0.00 | 56 | 1010.0 |
| 20260903212021 | 34 | 121 | 9.7 | 19.3 | 0.00 | 0.00 | 0.00 | 56 | 1010.0 |
| 20260903211509 | 34 | 138 | 6.4 | 17.7 | 0.00 | 0.00 | 0.00 | 56 | 1010.0 |
| 20260903211050 | 34 | 127 | 6.4 | 19.3 | 0.00 | 0.00 | 0.00 | 56 | 1010.1 |
| 20260903210527 | 34 | 163 | 8.0 | 19.3 | 0.00 | 0.00 | 0.00 | 56 | 1010.1 |
| 20260903210018 | 34 | 169 | 4.8 | 14.5 | 0.00 | 0.00 | 0.00 | 55 | 1010.2 |
| 20260903205559 | 35 | 62 | 4.8 | 17.7 | 0.00 | 0.00 | 0.00 | 55 | 1010.1 |
| 20260903205035 | 35 | 132 | 6.4 | 17.7 | 0.00 | 0.00 | 0.00 | 55 | 1010.2 |
| 20260903204528 | 35 | 93 | 6.4 | 24.1 | 0.00 | 0.00 | 0.00 | 55 | 1010.3 |
| 20260903204003 | 35 | 78 | 8.0 | 24.1 | 0.00 | 0.00 | 0.00 | 55 | 1010.3 |
| 20260903203545 | 35 | 148 | 4.8 | 24.1 | 0.00 | 0.00 | 0.00 | 54 | 1010.3 |
| 20260903203034 | 35 | 131 | 9.7 | 24.1 | 0.00 | 0.00 | 0.00 | 54 | 1010.6 |
| 20260903202511 | 35 | 106 | 8.0 | 19.3 | 0.00 | 0.00 | 0.00 | 55 | 1010.8 |
| 20260903202052 | 35 | 147 | 4.8 | 19.3 | 0.00 | 0.00 | 0.00 | 56 | 1010.9 |
| 20260903201543 | 35 | 132 | 6.4 | 19.3 | 0.00 | 0.00 | 0.00 | 55 | 1011.0 |
| 20260903201019 | 35 | 54 | 4.8 | 16.1 | 0.00 | 0.00 | 0.00 | 56 | 1011.0 |
| 20260903200559 | 35 | 117 | 3.2 | 14.5 | 0.00 | 0.00 | 0.00 | 56 | 1011.0 |
| 20260903200051 | 34 | 134 | 3.2 | 16.1 | 0.00 | 0.00 | 0.00 | 56 | 1011.1 |
| 20260903195526 | 34 | 134 | 3.2 | 16.1 | 0.00 | 0.00 | 0.00 | 55 | 1011.0 |
| 20260903195003 | 33 | 59 | 3.2 | 9.7 | 0.00 | 0.00 | 0.00 | 58 | 1011.0 |
| 20260903194605 | 33 | 123 | 3.2 | 11.3 | 0.00 | 0.00 | 0.00 | 58 | 1011.1 |
| 20260903194035 | 33 | 67 | 3.2 | 12.9 | 0.00 | 0.00 | 0.00 | 59 | 1011.2 |
| 20260903193511 | 33 | 78 | 1.6 | 14.5 | 0.00 | 0.00 | 0.00 | 60 | 1011.2 |
| 20260903193002 | 33 | 89 | 4.8 | 16.1 | 0.00 | 0.00 | 0.00 | 59 | 1011.4 |
| 20260903192545 | 33 | 114 | 4.8 | 16.1 | 0.00 | 0.00 | 0.00 | 58 | 1011.4 |
| 20260903192018 | 33 | 141 | 3.2 | 12.9 | 0.00 | 0.00 | 0.00 | 58 | 1011.5 |
| 20260903191509 | 33 | 126 | 4.8 | 12.9 | 0.00 | 0.00 | 0.00 | 58 | 1011.5 |
| 20260903191051 | 33 | 74 | 3.2 | 11.3 | 0.00 | 0.00 | 0.00 | 59 | 1011.7 |
| 20260903190527 | 33 | 92 | 0.0 | 14.5 | 0.00 | 0.00 | 0.00 | 60 | 1011.8 |
| 20260903190018 | 32 | 118 | 6.4 | 14.5 | 0.00 | 0.00 | 0.00 | 58 | 1012.0 |
| 20260903185559 | 32 | 153 | 1.6 | 14.5 | 0.00 | 0.00 | 0.00 | 60 | 1012.0 |
| 20260903185035 | 32 | 144 | 3.2 | 14.5 | 0.00 | 0.00 | 0.00 | 59 | 1012.1 |
| 20260903184525 | 32 | 152 | 4.8 | 12.9 | 0.00 | 0.00 | 0.00 | 59 | 1012.1 |
| 20260903184005 | 32 | 86 | 1.6 | 11.3 | 0.00 | 0.00 | 0.00 | 60 | 1012.2 |
| 20260903183546 | 32 | 134 | 4.8 | 11.3 | 0.00 | 0.00 | 0.00 | 59 | 1012.3 |
| 20260903183034 | 32 | 87 | 4.8 | 12.9 | 0.00 | 0.00 | 0.00 | 60 | 1012.4 |
| 20260903182511 | 32 | 66 | 4.8 | 12.9 | 0.00 | 0.00 | 0.00 | 61 | 1012.5 |
| 20260903182050 | 32 | 138 | 1.6 | 12.9 | 0.00 | 0.00 | 0.00 | 61 | 1012.4 |
| 20260903181551 | 32 | 80 | 3.2 | 12.9 | 0.00 | 0.00 | 0.00 | 62 | 1012.5 |
| 20260903181020 | 32 | 140 | 4.8 | 12.9 | 0.00 | 0.00 | 0.00 | 61 | 1012.6 |
| 20260903180601 | 32 | 144 | 4.8 | 12.9 | 0.00 | 0.00 | 0.00 | 61 | 1012.6 |
| 20260903180100 | 32 | 123 | 3.2 | 11.3 | 0.00 | 0.00 | 0.00 | 62 | 1012.7 |
| 20260903175529 | 31 | 90 | 3.2 | 14.5 | 0.00 | 0.00 | 0.00 | 63 | 1012.8 |
| 20260903175005 | 31 | 130 | 3.2 | 14.5 | 0.00 | 0.00 | 0.00 | 63 | 1012.9 |
| 20260903174602 | 31 | 98 | 1.6 | 11.3 | 0.00 | 0.00 | 0.00 | 64 | 1013.0 |
| 20260903174040 | 31 | 130 | 3.2 | 8.0 | 0.00 | 0.00 | 0.00 | 64 | 1013.1 |
| 20260903173515 | 31 | 143 | 1.6 | 14.5 | 0.00 | 0.00 | 0.00 | 64 | 1013.1 |
| 20260903173007 | 31 | 147 | 3.2 | 14.5 | 0.00 | 0.00 | 0.00 | 64 | 1013.1 |
| 20260903172546 | 31 | 144 | 3.2 | 12.9 | 0.00 | 0.00 | 0.00 | 65 | 1013.2 |
| 20260903172023 | 31 | 144 | 4.8 | 8.0 | 0.00 | 0.00 | 0.00 | 65 | 1013.3 |
| 20260903171515 | 31 | 72 | 1.6 | 11.3 | 0.00 | 0.00 | 0.00 | 65 | 1013.3 |
| 20260903171057 | 31 | 140 | 3.2 | 11.3 | 0.00 | 0.00 | 0.00 | 65 | 1013.3 |
| 20260903170536 | 31 | 63 | 0.0 | 6.4 | 0.00 | 0.00 | 0.00 | 66 | 1013.4 |
| 20260903170041 | 30 | 108 | 1.6 | 6.4 | 0.00 | 0.00 | 0.00 | 66 | 1013.4 |
| 20260903165504 | 30 | 71 | 3.2 | 6.4 | 0.00 | 0.00 | 0.00 | 67 | 1013.4 |
| 20260903165046 | 30 | 140 | 1.6 | 11.3 | 0.00 | 0.00 | 0.00 | 67 | 1013.4 |
| 20260903164540 | 30 | 128 | 4.8 | 12.9 | 0.00 | 0.00 | 0.00 | 67 | 1013.3 |
| 20260903164017 | 30 | 159 | 4.8 | 14.5 | 0.00 | 0.00 | 0.00 | 67 | 1013.2 |
| 20260903163600 | 30 | 140 | 3.2 | 11.3 | 0.00 | 0.00 | 0.00 | 68 | 1013.2 |
| 20260903163048 | 30 | 164 | 4.8 | 17.7 | 0.00 | 0.00 | 0.00 | 68 | 1013.1 |
| 20260903162526 | 30 | 155 | 9.7 | 17.7 | 0.00 | 0.00 | 0.00 | 68 | 1013.1 |
| 20260903162002 | 30 | 155 | 4.8 | 12.9 | 0.00 | 0.00 | 0.00 | 69 | 1013.0 |
| 20260903161614 | 30 | 171 | 4.8 | 17.7 | 0.00 | 0.00 | 0.00 | 68 | 1013.0 |
| 20260903161034 | 30 | 161 | 4.8 | 14.5 | 0.00 | 0.00 | 0.00 | 68 | 1012.9 |
| 20260903160514 | 30 | 142 | 3.2 | 14.5 | 0.00 | 0.00 | 0.00 | 68 | 1012.9 |
| 20260903160003 | 30 | 150 | 4.8 | 16.1 | 0.00 | 0.00 | 0.00 | 68 | 1013.0 |
| 20260903155543 | 30 | 130 | 6.4 | 17.7 | 0.00 | 0.00 | 0.00 | 69 | 1012.9 |
| 20260903155020 | 30 | 201 | 6.4 | 16.1 | 0.00 | 0.00 | 0.00 | 70 | 1012.8 |
| 20260903154513 | 29 | 133 | 4.8 | 12.9 | 0.00 | 0.00 | 0.00 | 70 | 1012.8 |
| 20260903154053 | 29 | 171 | 4.8 | 22.5 | 0.00 | 0.00 | 0.00 | 70 | 1012.8 |
| 20260903153530 | 29 | 146 | 6.4 | 22.5 | 0.00 | 0.00 | 0.00 | 72 | 1012.8 |
| 20260903153023 | 29 | 194 | 4.8 | 14.5 | 0.00 | 0.00 | 0.00 | 72 | 1012.8 |
| 20260903152604 | 29 | 180 | 4.8 | 14.5 | 0.00 | 0.00 | 0.00 | 73 | 1012.7 |
| 20260903152040 | 28 | 173 | 6.4 | 14.5 | 0.00 | 0.00 | 0.00 | 74 | 1012.7 |
| 20260903151543 | 28 | 157 | 6.4 | 14.5 | 0.00 | 0.00 | 0.00 | 75 | 1012.7 |
| 20260903151010 | 28 | 185 | 6.4 | 14.5 | 0.00 | 0.00 | 0.00 | 76 | 1012.7 |
| 20260903150551 | 28 | 130 | 4.8 | 14.5 | 0.00 | 0.00 | 0.00 | 76 | 1012.8 |
| 20260903150045 | 28 | 174 | 6.4 | 17.7 | 0.00 | 0.00 | 0.00 | 77 | 1012.8 |
| 20260903145520 | 28 | 186 | 6.4 | 17.7 | 0.00 | 0.00 | 0.00 | 77 | 1012.8 |
| 20260903145101 | 28 | 134 | 4.8 | 14.5 | 0.00 | 0.00 | 0.00 | 78 | 1012.8 |
| 20260903144553 | 28 | 196 | 1.6 | 9.7 | 0.00 | 0.00 | 0.00 | 78 | 1012.7 |
| 20260903144030 | 28 | 182 | 1.6 | 9.7 | 0.00 | 0.00 | 0.00 | 79 | 1012.8 |
| 20260903143507 | 28 | 155 | 3.2 | 12.9 | 0.00 | 0.00 | 0.00 | 80 | 1012.9 |
| 20260903143104 | 27 | 134 | 3.2 | 14.5 | 0.00 | 0.00 | 0.00 | 80 | 1012.9 |
| 20260903142542 | 27 | 159 | 6.4 | 14.5 | 0.00 | 0.00 | 0.00 | 80 | 1012.8 |
| 20260903142019 | 27 | 160 | 3.2 | 14.5 | 0.00 | 0.00 | 0.00 | 81 | 1012.8 |
| 20260903141509 | 27 | 138 | 6.4 | 12.9 | 0.00 | 0.00 | 0.00 | 81 | 1012.8 |
| 20260903141054 | 27 | 153 | 3.2 | 14.5 | 0.00 | 0.00 | 0.00 | 82 | 1012.7 |
| 20260903140527 | 27 | 232 | 1.6 | 11.3 | 0.00 | 0.00 | 0.00 | 83 | 1012.8 |
| 20260903140031 | 27 | 196 | 3.2 | 16.1 | 0.00 | 0.00 | 0.00 | 83 | 1012.8 |
| 20260903135601 | 27 | 251 | 3.2 | 16.1 | 0.00 | 0.00 | 0.00 | 84 | 1012.8 |
| 20260903135038 | 27 | 215 | 1.6 | 11.3 | 0.00 | 0.00 | 0.00 | 84 | 1012.8 |
| 20260903134538 | 27 | 199 | 3.2 | 9.7 | 0.00 | 0.00 | 0.00 | 84 | 1012.8 |
| 20260903134007 | 27 | 159 | 4.8 | 12.9 | 0.00 | 0.00 | 0.00 | 84 | 1012.9 |
| 20260903133548 | 27 | 144 | 3.2 | 12.9 | 0.00 | 0.00 | 0.00 | 85 | 1012.9 |
| 20260903133042 | 26 | 212 | 3.2 | 14.5 | 0.00 | 0.00 | 0.00 | 85 | 1012.8 |
| 20260903132518 | 26 | 150 | 4.8 | 16.1 | 0.00 | 0.00 | 0.00 | 85 | 1012.8 |
| 20260903132059 | 26 | 145 | 8.0 | 16.1 | 0.00 | 0.00 | 0.00 | 85 | 1012.9 |
| 20260903131549 | 26 | 143 | 3.2 | 11.3 | 0.00 | 0.00 | 0.00 | 86 | 1012.9 |
| 20260903131026 | 26 | 139 | 1.6 | 12.9 | 0.00 | 0.00 | 0.00 | 86 | 1012.8 |
| 20260903130502 | 26 | 172 | 4.8 | 12.9 | 0.00 | 0.00 | 0.00 | 86 | 1012.8 |
| 20260903125537 | 26 | 167 | 6.4 | 16.1 | 0.00 | 0.00 | 0.00 | 86 | 1012.8 |
| 20260903125013 | 26 | 126 | 4.8 | 12.9 | 0.00 | 0.00 | 0.00 | 86 | 1012.7 |
| 20260903124523 | 26 | 127 | 4.8 | 14.5 | 0.00 | 0.00 | 0.00 | 86 | 1012.6 |
| 20260903124103 | 26 | 139 | 6.4 | 14.5 | 0.00 | 0.00 | 0.00 | 87 | 1012.6 |
| 20260903123541 | 26 | 161 | 3.2 | 11.3 | 0.00 | 0.00 | 0.00 | 87 | 1012.6 |
| 20260903123038 | 26 | 229 | 3.2 | 11.3 | 0.00 | 0.00 | 0.00 | 87 | 1012.6 |
| 20260903122511 | 26 | 192 | 3.2 | 14.5 | 0.00 | 0.00 | 0.00 | 87 | 1012.5 |
| 20260903122052 | 26 | 198 | 3.2 | 14.5 | 0.00 | 0.00 | 0.00 | 87 | 1012.4 |
| 20260903121545 | 26 | 180 | 3.2 | 16.1 | 0.00 | 0.00 | 0.00 | 87 | 1012.4 |
| 20260903121025 | 26 | 139 | 8.0 | 16.1 | 0.00 | 0.00 | 0.00 | 87 | 1012.4 |
| 20260903120607 | 26 | 144 | 6.4 | 17.7 | 0.00 | 0.00 | 0.00 | 87 | 1012.4 |
| 20260903120057 | 26 | 144 | 6.4 | 17.7 | 0.00 | 0.00 | 0.00 | 87 | 1012.4 |
| 20260903115535 | 26 | 165 | 4.8 | 14.5 | 0.00 | 0.00 | 0.00 | 86 | 1012.3 |
| 20260903115010 | 26 | 203 | 6.4 | 12.9 | 0.00 | 0.00 | 0.00 | 86 | 1012.3 |
| 20260903114527 | 26 | 148 | 3.2 | 11.3 | 0.00 | 0.00 | 0.00 | 86 | 1012.2 |
| 20260903114103 | 26 | 192 | 3.2 | 12.9 | 0.00 | 0.00 | 0.00 | 86 | 1012.2 |
| 20260903113539 | 26 | 140 | 6.4 | 17.7 | 0.00 | 0.00 | 0.00 | 86 | 1012.2 |
| 20260903113032 | 26 | 140 | 8.0 | 20.9 | 0.00 | 0.00 | 0.00 | 86 | 1012.3 |
| 20260903112509 | 26 | 147 | 6.4 | 16.1 | 0.00 | 0.00 | 0.00 | 86 | 1012.4 |
| 20260903112051 | 26 | 144 | 4.8 | 16.1 | 0.00 | 0.00 | 0.00 | 87 | 1012.4 |
| 20260903111544 | 26 | 151 | 8.0 | 16.1 | 0.00 | 0.00 | 0.00 | 87 | 1012.4 |
| 20260903111021 | 26 | 136 | 6.4 | 17.7 | 0.00 | 0.00 | 0.00 | 87 | 1012.4 |
| 20260903110603 | 26 | 138 | 4.8 | 17.7 | 0.00 | 0.00 | 0.00 | 87 | 1012.4 |
| 20260903110104 | 26 | 160 | 3.2 | 9.7 | 0.00 | 0.00 | 0.00 | 87 | 1012.4 |
| 20260903105533 | 26 | 130 | 4.8 | 14.5 | 0.00 | 0.00 | 0.00 | 87 | 1012.3 |
| 20260903105009 | 26 | 144 | 3.2 | 12.9 | 0.00 | 0.00 | 0.00 | 87 | 1012.3 |
| 20260903104503 | 26 | 147 | 6.4 | 17.7 | 0.00 | 0.00 | 0.00 | 87 | 1012.2 |
| 20260903104045 | 26 | 126 | 8.0 | 17.7 | 0.00 | 0.00 | 0.00 | 87 | 1012.1 |
| 20260903103520 | 26 | 177 | 3.2 | 17.7 | 0.00 | 0.00 | 0.00 | 86 | 1012.0 |
| 20260903103034 | 26 | 152 | 8.0 | 17.7 | 0.00 | 0.00 | 0.00 | 86 | 1012.0 |
| 20260903102507 | 26 | 165 | 6.4 | 16.1 | 0.00 | 0.00 | 0.00 | 86 | 1012.0 |
| 20260903102049 | 26 | 146 | 4.8 | 14.5 | 0.00 | 0.00 | 0.00 | 86 | 1012.0 |
| 20260903101545 | 26 | 151 | 6.4 | 14.5 | 0.00 | 0.00 | 0.00 | 86 | 1011.9 |
| 20260903101022 | 26 | 150 | 4.8 | 12.9 | 0.00 | 0.00 | 0.00 | 86 | 1012.0 |
| 20260903100601 | 26 | 154 | 4.8 | 12.9 | 0.00 | 0.00 | 0.00 | 86 | 1011.9 |
| 20260903100056 | 26 | 169 | 4.8 | 12.9 | 0.00 | 0.00 | 0.00 | 86 | 1012.0 |
| 20260903095532 | 26 | 146 | 3.2 | 19.3 | 0.00 | 0.00 | 0.00 | 86 | 1012.1 |
| 20260903095009 | 26 | 150 | 6.4 | 16.1 | 0.00 | 0.00 | 0.00 | 86 | 1012.0 |
| 20260903094503 | 26 | 164 | 3.2 | 14.5 | 0.00 | 0.00 | 0.00 | 86 | 1012.0 |
| 20260903094044 | 26 | 151 | 3.2 | 14.5 | 0.00 | 0.00 | 0.00 | 85 | 1012.0 |
| 20260903093521 | 26 | 210 | 4.8 | 12.9 | 0.00 | 0.00 | 0.00 | 85 | 1012.0 |
| 20260903093037 | 26 | 142 | 4.8 | 12.9 | 0.00 | 0.00 | 0.00 | 85 | 1012.0 |
| 20260903092559 | 26 | 146 | 6.4 | 11.3 | 0.00 | 0.00 | 0.00 | 85 | 1012.2 |
| 20260903092033 | 26 | 145 | 4.8 | 17.7 | 0.00 | 0.00 | 0.00 | 85 | 1012.3 |
| 20260903091527 | 26 | 144 | 3.2 | 14.5 | 0.00 | 0.00 | 0.00 | 85 | 1012.3 |
| 20260903091003 | 26 | 130 | 6.4 | 16.1 | 0.00 | 0.00 | 0.00 | 85 | 1012.4 |
| 20260903090545 | 26 | 159 | 4.8 | 14.5 | 0.00 | 0.00 | 0.00 | 84 | 1012.4 |
| 20260903090039 | 26 | 163 | 4.8 | 14.5 | 0.00 | 0.00 | 0.00 | 84 | 1012.4 |
| 20260903085516 | 26 | 157 | 4.8 | 17.7 | 0.00 | 0.00 | 0.00 | 84 | 1012.3 |
| 20260903085056 | 26 | 117 | 6.4 | 17.7 | 0.00 | 0.00 | 0.00 | 84 | 1012.3 |
| 20260903084553 | 26 | 140 | 6.4 | 17.7 | 0.00 | 0.00 | 0.00 | 84 | 1012.3 |
| 20260903084028 | 26 | 134 | 8.0 | 16.1 | 0.00 | 0.00 | 0.00 | 83 | 1012.3 |
| 20260903083504 | 26 | 187 | 4.8 | 14.5 | 0.00 | 0.00 | 0.00 | 83 | 1012.3 |
| 20260903083105 | 26 | 188 | 4.8 | 14.5 | 0.00 | 0.00 | 0.00 | 82 | 1012.3 |
| 20260903082540 | 26 | 151 | 6.4 | 14.5 | 0.00 | 0.00 | 0.00 | 82 | 1012.4 |
| 20260903082017 | 26 | 150 | 4.8 | 14.5 | 0.00 | 0.00 | 0.00 | 82 | 1012.3 |
| 20260903081514 | 26 | 136 | 6.4 | 14.5 | 0.00 | 0.00 | 0.00 | 82 | 1012.3 |
| 20260903081052 | 26 | 132 | 4.8 | 14.5 | 0.00 | 0.00 | 0.00 | 81 | 1012.4 |
| 20260903080525 | 26 | 142 | 8.0 | 14.5 | 0.00 | 0.00 | 0.00 | 81 | 1012.3 |
| 20260903080038 | 27 | 159 | 4.8 | 11.3 | 0.00 | 0.00 | 0.00 | 80 | 1012.4 |
| 20260903075515 | 27 | 143 | 4.8 | 14.5 | 0.00 | 0.00 | 0.00 | 80 | 1012.3 |
| 20260903075055 | 27 | 138 | 6.4 | 16.1 | 0.00 | 0.00 | 0.00 | 80 | 1012.3 |
| 20260903074508 | 27 | 169 | 6.4 | 16.1 | 0.00 | 0.00 | 0.00 | 79 | 1012.4 |
| 20260903074045 | 27 | 178 | 4.8 | 14.5 | 0.00 | 0.00 | 0.00 | 79 | 1012.4 |
| 20260903073523 | 26 | 147 | 8.0 | 14.5 | 0.00 | 0.00 | 0.00 | 79 | 1012.4 |
| 20260903073017 | 26 | 197 | 4.8 | 8.0 | 0.00 | 0.00 | 0.00 | 79 | 1012.3 |
| 20260903072557 | 26 | 182 | 4.8 | 11.3 | 0.00 | 0.00 | 0.00 | 79 | 1012.4 |
| 20260903072036 | 26 | 150 | 3.2 | 11.3 | 0.00 | 0.00 | 0.00 | 79 | 1012.4 |
| 20260903071530 | 26 | 148 | 3.2 | 12.9 | 0.00 | 0.00 | 0.00 | 79 | 1012.5 |
| 20260903071005 | 26 | 173 | 4.8 | 12.9 | 0.00 | 0.00 | 0.00 | 79 | 1012.6 |
| 20260903070548 | 26 | 159 | 4.8 | 8.0 | 0.00 | 0.00 | 0.00 | 79 | 1012.6 |
| 20260903070100 | 26 | 155 | 4.8 | 11.3 | 0.00 | 0.00 | 0.00 | 80 | 1012.6 |
| 20260903065536 | 26 | 161 | 4.8 | 11.3 | 0.00 | 0.00 | 0.00 | 80 | 1012.6 |
| 20260903065012 | 26 | 137 | 3.2 | 11.3 | 0.00 | 0.00 | 0.00 | 80 | 1012.6 |
| 20260903064508 | 26 | 148 | 4.8 | 11.3 | 0.00 | 0.00 | 0.00 | 80 | 1012.6 |
| 20260903064049 | 26 | 142 | 4.8 | 11.3 | 0.00 | 0.00 | 0.00 | 80 | 1012.7 |
| 20260903063526 | 26 | 162 | 4.8 | 11.3 | 0.00 | 0.00 | 0.00 | 80 | 1012.8 |
| 20260903063021 | 26 | 155 | 1.6 | 9.7 | 0.00 | 0.00 | 0.00 | 80 | 1012.8 |
| 20260903062603 | 26 | 155 | 3.2 | 14.5 | 0.00 | 0.00 | 0.00 | 80 | 1012.9 |
| 20260903062038 | 26 | 161 | 4.8 | 14.5 | 0.00 | 0.00 | 0.00 | 81 | 1012.9 |
| 20260903061534 | 26 | 152 | 3.2 | 14.5 | 0.00 | 0.00 | 0.00 | 81 | 1012.8 |
| 20260903061013 | 26 | 151 | 4.8 | 14.5 | 0.00 | 0.00 | 0.00 | 81 | 1012.9 |
| 20260903060552 | 26 | 142 | 3.2 | 8.0 | 0.00 | 0.00 | 0.00 | 81 | 1012.8 |
| 20260903060003 | 26 | 140 | 3.2 | 8.0 | 0.00 | 0.00 | 0.00 | 80 | 1012.9 |
| 20260903055543 | 26 | 142 | 1.6 | 8.0 | 0.00 | 0.00 | 0.00 | 80 | 1012.9 |
| 20260903055022 | 26 | 150 | 3.2 | 9.7 | 0.00 | 0.00 | 0.00 | 80 | 1012.9 |
| 20260903054522 | 26 | 155 | 3.2 | 9.7 | 0.00 | 0.00 | 0.00 | 80 | 1013.0 |
| 20260903054056 | 26 | 137 | 1.6 | 12.9 | 0.00 | 0.00 | 0.00 | 79 | 1013.0 |
| 20260903053533 | 27 | 134 | 6.4 | 16.1 | 0.00 | 0.00 | 0.00 | 79 | 1013.0 |
| 20260903053028 | 27 | 149 | 6.4 | 16.1 | 0.00 | 0.00 | 0.00 | 78 | 1012.9 |
| 20260903052505 | 27 | 132 | 6.4 | 14.5 | 0.00 | 0.00 | 0.00 | 77 | 1013.0 |
| 20260903052046 | 27 | 133 | 3.2 | 17.7 | 0.00 | 0.00 | 0.00 | 77 | 1013.0 |
| 20260903051542 | 27 | 128 | 11.3 | 17.7 | 0.00 | 0.00 | 0.00 | 76 | 1012.9 |
| 20260903051020 | 27 | 134 | 4.8 | 14.5 | 0.00 | 0.00 | 0.00 | 75 | 1012.9 |
| 20260903050559 | 27 | 169 | 6.4 | 17.7 | 0.00 | 0.00 | 0.00 | 75 | 1012.8 |
| 20260903050009 | 27 | 161 | 8.0 | 17.7 | 0.00 | 0.00 | 0.00 | 74 | 1012.8 |